When you browse on this site, cookies collect data to enhance your experience and personalize the content and advertising you see.
Visit our Privacy Policy to learn more. By continuing to use the site, you agree to this use of cookies and data.
  • Em Portugal
  • Lista de países
  • Para 7 dias
  • Temperatura da água
  • Mapas de satélite
  • Mapa do tempo
  • Widgets de tempo
  • user-avatar
    Iniciar Sessão

    Previsão horária em Salta

    Hoje, 22 Março, Sexta-feira

    Tempo Temperatura Precipitação Vento Pressão Humidade
    00:00 +13°C° 0 mm 1 m/s 650 mmHg 95%
    01:00 +12°C° 0 mm 0 m/s 650 mmHg 94%
    02:00 +12°C° 0 mm 0 m/s 650 mmHg 94%
    03:00 +12°C° 0 mm 0 m/s 650 mmHg 94%
    04:00 +12°C° 0 mm 0 m/s 650 mmHg 94%
    05:00 +12°C° 0 mm 0 m/s 650 mmHg 94%
    06:00 +14°C° 0.1 mm 1 m/s 651 mmHg 90%
    07:00 +15°C° 0.1 mm 1 m/s 651 mmHg 87%
    08:00 +16°C° 0.1 mm 1 m/s 652 mmHg 83%
    09:00 +19°C° 0 mm 1 m/s 652 mmHg 77%
    10:00 +19°C° 0 mm 2 m/s 653 mmHg 71%
    11:00 +21°C° 0 mm 2 m/s 653 mmHg 65%
    12:00 +23°C° 0 mm 2 m/s 653 mmHg 62%
    13:00 +24°C° 0 mm 2 m/s 653 mmHg 58%
    14:00 +26°C° 0 mm 3 m/s 653 mmHg 54%
    15:00 +25°C° 0 mm 2 m/s 652 mmHg 56%
    16:00 +25°C° 0 mm 2 m/s 652 mmHg 57%
    17:00 +24°C° 0 mm 2 m/s 652 mmHg 59%
    18:00 +22°C° 0 mm 1 m/s 651 mmHg 68%
    19:00 +20°C° 0 mm 1 m/s 651 mmHg 77%
    20:00 +16°C° 0 mm 0 m/s 651 mmHg 87%
    21:00 +15°C° 0 mm 0 m/s 652 mmHg 88%
    22:00 +16°C° 0 mm 1 m/s 652 mmHg 89%
    23:00 +16°C° 0 mm 1 m/s 652 mmHg 90%

    Amanhã, 23 Março, Sábado

    Tempo Temperatura Precipitação Vento Pressão Humidade
    00:00 +14°C° 0 mm 0 m/s 652 mmHg 91%
    01:00 +14°C° 0 mm 0 m/s 652 mmHg 92%
    02:00 +14°C° 0 mm 0 m/s 651 mmHg 92%
    03:00 +14°C° 0 mm 0 m/s 651 mmHg 92%
    04:00 +14°C° 0 mm 0 m/s 651 mmHg 92%
    05:00 +14°C° 0 mm 0 m/s 651 mmHg 92%
    06:00 +16°C° 0 mm 1 m/s 652 mmHg 88%
    07:00 +18°C° 0 mm 1 m/s 652 mmHg 84%
    08:00 +19°C° 0 mm 1 m/s 653 mmHg 80%
    09:00 +21°C° 0 mm 1 m/s 653 mmHg 74%
    10:00 +21°C° 0 mm 2 m/s 653 mmHg 69%
    11:00 +24°C° 0 mm 3 m/s 653 mmHg 63%
    12:00 +25°C° 0 mm 3 m/s 653 mmHg 62%
    13:00 +25°C° 0 mm 3 m/s 652 mmHg 60%
    14:00 +26°C° 0 mm 3 m/s 651 mmHg 59%
    15:00 +26°C° 0 mm 3 m/s 651 mmHg 61%
    16:00 +25°C° 0 mm 3 m/s 650 mmHg 64%
    17:00 +24°C° 0 mm 2 m/s 650 mmHg 67%
    18:00 +23°C° 0 mm 2 m/s 650 mmHg 74%
    19:00 +21°C° 0 mm 1 m/s 650 mmHg 81%
    20:00 +19°C° 0 mm 1 m/s 650 mmHg 88%
    21:00 +19°C° 0 mm 1 m/s 651 mmHg 90%
    22:00 +17°C° 0 mm 0 m/s 651 mmHg 91%
    23:00 +16°C° 0 mm 0 m/s 652 mmHg 93%

    Depois de amanhã, 24 Março, Domingo

    Tempo Temperatura Precipitação Vento Pressão Humidade
    00:00 +16°C° 0 mm 0 m/s 651 mmHg 93%
    01:00 +16°C° 0 mm 0 m/s 651 mmHg 93%
    02:00 +15°C° 0 mm 0 m/s 651 mmHg 94%
    03:00 +15°C° 0 mm 0 m/s 651 mmHg 94%
    04:00 +15°C° 0 mm 0 m/s 651 mmHg 94%
    05:00 +16°C° 0 mm 1 m/s 651 mmHg 93%
    06:00 +18°C° 0.1 mm 1 m/s 652 mmHg 88%
    07:00 +18°C° 0.1 mm 0 m/s 653 mmHg 84%
    08:00 +19°C° 0.1 mm 0 m/s 654 mmHg 79%
    09:00 +23°C° 0.1 mm 1 m/s 655 mmHg 71%
    10:00 +25°C° 0.1 mm 1 m/s 655 mmHg 64%
    11:00 +27°C° 0.1 mm 2 m/s 656 mmHg 56%
    12:00 +27°C° 0.2 mm 2 m/s 655 mmHg 54%
    13:00 +28°C° 0.2 mm 2 m/s 655 mmHg 52%
    14:00 +28°C° 0.2 mm 2 m/s 654 mmHg 50%
    15:00 +27°C° 0.4 mm 2 m/s 653 mmHg 57%
    16:00 +26°C° 0.4 mm 2 m/s 652 mmHg 64%
    17:00 +24°C° 0.4 mm 2 m/s 652 mmHg 71%
    18:00 +23°C° 1.3 mm 2 m/s 652 mmHg 79%
    19:00 +21°C° 1.3 mm 1 m/s 652 mmHg 87%
    20:00 +19°C° 1.3 mm 1 m/s 652 mmHg 95%
    21:00 +19°C° 0.8 mm 1 m/s 652 mmHg 94%
    22:00 +19°C° 0.8 mm 1 m/s 653 mmHg 94%
    23:00 +18°C° 0.8 mm 1 m/s 653 mmHg 93%

    25 Março, Segunda-feira

    Tempo Temperatura Precipitação Vento Pressão Humidade
    00:00 +18°C° 0 mm 1 m/s 653 mmHg 92%
    01:00 +18°C° 0 mm 1 m/s 652 mmHg 92%
    02:00 +18°C° 0 mm 1 m/s 652 mmHg 91%
    03:00 +16°C° 0 mm 1 m/s 652 mmHg 92%
    04:00 +16°C° 0 mm 1 m/s 652 mmHg 92%
    05:00 +15°C° 0 mm 0 m/s 652 mmHg 93%
    06:00 +15°C° 0.1 mm 0 m/s 652 mmHg 91%
    07:00 +18°C° 0.1 mm 1 m/s 653 mmHg 89%
    08:00 +19°C° 0.1 mm 1 m/s 654 mmHg 88%
    09:00 +20°C° 0.1 mm 1 m/s 654 mmHg 85%
    10:00 +20°C° 0.1 mm 2 m/s 654 mmHg 83%
    11:00 +20°C° 0.1 mm 2 m/s 654 mmHg 81%
    12:00 +20°C° 0.5 mm 2 m/s 653 mmHg 83%
    13:00 +20°C° 0.5 mm 2 m/s 653 mmHg 84%
    14:00 +20°C° 0.5 mm 2 m/s 652 mmHg 86%
    15:00 +19°C° 0.6 mm 2 m/s 651 mmHg 89%
    16:00 +19°C° 0.6 mm 2 m/s 651 mmHg 92%
    17:00 +19°C° 0.6 mm 1 m/s 650 mmHg 95%
    18:00 +19°C° 0.8 mm 1 m/s 651 mmHg 96%
    19:00 +18°C° 0.8 mm 1 m/s 652 mmHg 97%
    20:00 +18°C° 0.8 mm 1 m/s 652 mmHg 97%
    21:00 +18°C° 0.4 mm 1 m/s 652 mmHg 98%
    22:00 +18°C° 0.4 mm 1 m/s 653 mmHg 98%
    23:00 +18°C° 0.4 mm 1 m/s 653 mmHg 98%

    26 Março, Terça-feira

    Tempo Temperatura Precipitação Vento Pressão Humidade
    00:00 +18°C° 0.4 mm 1 m/s 653 mmHg 98%
    01:00 +18°C° 0.4 mm 1 m/s 653 mmHg 98%
    02:00 +18°C° 0.4 mm 1 m/s 653 mmHg 98%
    03:00 +16°C° 0.3 mm 1 m/s 653 mmHg 98%
    04:00 +16°C° 0.3 mm 1 m/s 653 mmHg 98%
    05:00 +16°C° 0.3 mm 1 m/s 653 mmHg 98%
    06:00 +16°C° 0.3 mm 1 m/s 653 mmHg 98%
    07:00 +16°C° 0.3 mm 1 m/s 654 mmHg 98%
    08:00 +16°C° 0.3 mm 1 m/s 654 mmHg 98%
    09:00 +16°C° 0.3 mm 1 m/s 654 mmHg 97%
    10:00 +16°C° 0.3 mm 1 m/s 654 mmHg 95%
    11:00 +16°C° 0.3 mm 1 m/s 654 mmHg 94%
    12:00 +18°C° 0.3 mm 1 m/s 654 mmHg 91%
    13:00 +19°C° 0.3 mm 1 m/s 654 mmHg 87%
    14:00 +18°C° 0.3 mm 2 m/s 653 mmHg 84%
    15:00 +19°C° 0.2 mm 1 m/s 653 mmHg 86%
    16:00 +18°C° 0.2 mm 1 m/s 653 mmHg 89%
    17:00 +18°C° 0.2 mm 1 m/s 652 mmHg 92%
    18:00 +16°C° 0.2 mm 1 m/s 653 mmHg 94%
    19:00 +16°C° 0.2 mm 1 m/s 653 mmHg 95%
    20:00 +16°C° 0.2 mm 1 m/s 654 mmHg 97%
    21:00 +15°C° 0.2 mm 1 m/s 654 mmHg 97%
    22:00 +15°C° 0.2 mm 1 m/s 655 mmHg 97%
    23:00 +15°C° 0.2 mm 1 m/s 655 mmHg 97%

    27 Março, Quarta-feira

    Tempo Temperatura Precipitação Vento Pressão Humidade
    00:00 +15°C° 0.1 mm 1 m/s 655 mmHg 97%
    01:00 +15°C° 0.1 mm 1 m/s 654 mmHg 97%
    02:00 +15°C° 0.1 mm 1 m/s 654 mmHg 97%
    03:00 +14°C° 0.1 mm 1 m/s 654 mmHg 97%
    04:00 +14°C° 0.1 mm 1 m/s 654 mmHg 97%
    05:00 +14°C° 0.1 mm 1 m/s 654 mmHg 97%
    06:00 +14°C° 0.1 mm 1 m/s 654 mmHg 96%
    07:00 +14°C° 0.1 mm 1 m/s 654 mmHg 95%
    08:00 +14°C° 0.1 mm 1 m/s 655 mmHg 94%
    09:00 +15°C° 0 mm 1 m/s 655 mmHg 90%
    10:00 +16°C° 0 mm 2 m/s 654 mmHg 86%
    11:00 +17°C° 0 mm 2 m/s 654 mmHg 82%
    12:00 +17°C° 0.1 mm 2 m/s 654 mmHg 82%
    13:00 +17°C° 0.1 mm 2 m/s 653 mmHg 82%
    14:00 +18°C° 0.1 mm 2 m/s 652 mmHg 83%
    15:00 +17°C° 0 mm 2 m/s 652 mmHg 83%
    16:00 +18°C° 0 mm 1 m/s 651 mmHg 84%
    17:00 +18°C° 0 mm 1 m/s 651 mmHg 84%
    18:00 +16°C° 0 mm 1 m/s 651 mmHg 87%
    19:00 +16°C° 0 mm 1 m/s 652 mmHg 89%
    20:00 +15°C° 0 mm 1 m/s 652 mmHg 92%
    21:00 +14°C° 0 mm 0 m/s 652 mmHg 92%
    22:00 +13°C° 0 mm 0 m/s 652 mmHg 92%
    23:00 +13°C° 0 mm 0 m/s 653 mmHg 93%
    Mostrar mais